Terminal Aerodrome Forecast
Issued by NWS St Louis, MO

Home | Current Version | Previous Version | Text Only | Print | Product List | Glossary On
Versions: 1 2 3 4 5 6 7 8 9 10 11 12 13 14 15 16 17 18 19 20 21 22 23 24
000
FTUS43 KLSX 171126
TAFSTL
TAF
KSTL 171126Z 1712/1818 24008KT P6SM BKN050 BKN250
     FM171400 25010KT P6SM BKN015
     FM171600 26008KT P6SM BKN025
     FM171700 26011G17KT P6SM SCT035
     FM180100 27006KT P6SM FEW250=

USA.gov is the U.S. government's official web portal to all federal, state and local government web resources and services.